Total_Precipitation_Accumulation
0.59 0.75 0.86 0.85 0.85 0.90 0.94 0.93 0.90 0.85 0.85 0.84 0.84 0.91 0.93 0.87 0.81 0.86 0.85 0.78 0.77 0.72 0.70 0.71 0.68 0.65 0.73 0.76 0.79 0.76 0.70 0.72 0.74 0.39 0.29 0.32 0.42 0.49 0.49 0.42 0.40 0.38 0.36
0.51 0.62 0.74 0.83 0.86 0.91 0.91 0.96 1.00 0.98 0.88 0.80 0.79 0.85 0.92 0.91 0.85 0.83 0.83 0.80 0.81 0.77 0.74 0.76 0.75 0.72 0.75 0.79 0.87 0.86 0.76 0.68 0.73 0.58 0.40 0.43 0.51 0.57 0.57 0.51 0.47 0.44 0.35
0.50 0.60 0.70 0.80 0.82 0.84 0.82 0.88 1.05 1.15 1.08 0.92 0.83 0.84 0.93 0.99 0.93 0.84 0.84 0.83 0.79 0.76 0.74 0.79 0.82 0.83 0.77 0.77 0.88 0.93 0.85 0.77 0.76 0.73 0.51 0.43 0.50 0.61 0.69 0.65 0.57 0.55 0.45
0.47 0.57 0.65 0.74 0.76 0.76 0.77 0.78 0.92 1.08 1.16 1.07 0.93 0.87 0.94 1.06 1.08 1.05 1.04 0.95 0.86 0.76 0.67 0.69 0.79 0.92 0.93 0.94 0.98 0.96 0.97 0.98 0.92 0.87 0.69 0.55 0.57 0.65 0.79 0.82 0.74 0.66 0.58
0.46 0.54 0.56 0.65 0.73 0.73 0.72 0.76 0.85 0.97 1.05 1.06 1.02 0.95 0.95 1.15 1.37 1.52 1.41 1.12 0.92 0.81 0.67 0.63 0.73 0.96 1.13 1.30 1.35 1.23 1.23 1.32 1.25 1.16 1.02 0.85 0.73 0.76 0.84 0.84 0.88 0.78 0.70
0.45 0.51 0.53 0.61 0.71 0.74 0.69 0.73 0.83 0.94 0.99 0.99 0.99 0.96 0.95 1.12 1.46 1.68 1.36 1.02 0.89 0.82 0.74 0.65 0.71 0.95 1.09 1.19 1.32 1.30 1.32 1.48 1.54 1.46 1.30 1.08 0.82 0.71 0.75 0.88 1.03 1.10 0.97
0.45 0.47 0.54 0.61 0.64 0.72 0.72 0.74 0.83 0.92 0.94 0.94 0.91 0.89 0.87 0.94 1.27 1.50 1.26 0.95 0.85 0.80 0.76 0.70 0.72 0.83 0.95 0.97 1.04 1.06 1.08 1.24 1.45 1.53 1.46 1.13 0.93 0.81 0.93 1.08 1.09 1.16 1.04
0.48 0.45 0.51 0.58 0.60 0.71 0.76 0.76 0.86 0.93 0.89 0.89 0.87 0.84 0.80 0.84 1.14 1.40 1.23 0.97 0.87 0.80 0.79 0.72 0.67 0.72 0.84 0.97 1.03 0.98 0.91 0.98 1.20 1.38 1.55 1.34 1.14 1.13 1.31 1.48 1.50 1.47 1.26
0.50 0.44 0.47 0.55 0.60 0.69 0.75 0.81 0.88 0.94 0.88 0.85 0.82 0.83 0.78 0.77 1.02 1.40 1.30 1.00 0.92 0.84 0.82 0.76 0.68 0.64 0.81 0.94 0.91 0.85 0.79 0.84 0.95 1.14 1.26 1.28 1.28 1.41 1.65 1.96 2.03 1.94 1.68
0.50 0.42 0.44 0.50 0.53 0.61 0.69 0.79 0.85 0.84 0.82 0.83 0.79 0.79 0.77 0.71 0.85 1.28 1.41 1.05 0.94 0.87 0.86 0.80 0.84 0.82 0.88 0.89 0.80 0.81 0.88 0.81 0.77 0.80 0.83 0.85 0.89 1.01 1.36 1.76 1.98 2.01 1.80
0.49 0.44 0.46 0.49 0.52 0.59 0.68 0.70 0.76 0.80 0.78 0.82 0.80 0.77 0.75 0.73 0.76 1.04 1.40 1.15 0.98 0.88 0.88 0.86 0.80 0.92 0.91 0.86 0.82 0.80 0.93 0.86 0.76 0.82 0.81 0.75 0.73 0.80 0.96 1.26 1.66 1.95 1.96
0.44 0.45 0.50 0.54 0.56 0.60 0.65 0.62 0.65 0.75 0.78 0.80 0.84 0.86 0.83 0.77 0.79 0.99 1.20 1.17 1.05 0.86 0.84 0.77 0.74 0.87 0.89 0.90 0.85 0.86 0.88 0.86 0.79 0.77 0.72 0.69 0.70 0.76 0.87 1.03 1.26 1.54 1.70
0.42 0.44 0.49 0.56 0.59 0.61 0.60 0.59 0.63 0.69 0.76 0.80 0.83 0.84 0.86 0.81 0.83 1.02 1.02 1.04 1.03 0.92 0.91 0.94 0.88 0.93 0.94 0.84 0.79 0.81 0.78 0.72 0.76 0.77 0.67 0.60 0.62 0.71 0.77 0.85 0.94 1.14 1.34
0.41 0.42 0.47 0.52 0.58 0.62 0.58 0.55 0.56 0.63 0.73 0.75 0.78 0.77 0.76 0.78 0.90 1.02 0.93 0.91 0.98 1.03 1.06 1.03 1.00 0.99 0.94 0.85 0.79 0.69 0.61 0.61 0.69 0.71 0.64 0.57 0.54 0.59 0.68 0.79 0.89 0.99 1.20
0.38 0.38 0.42 0.44 0.55 0.65 0.64 0.58 0.56 0.55 0.68 0.76 0.74 0.73 0.77 0.87 1.00 1.07 0.96 0.93 0.99 1.06 1.13 1.15 1.07 1.02 1.00 0.90 0.75 0.63 0.57 0.59 0.62 0.59 0.61 0.60 0.58 0.58 0.61 0.68 0.87 0.98 1.13
0.36 0.37 0.39 0.43 0.51 0.59 0.63 0.64 0.70 0.67 0.68 0.67 0.66 0.71 0.71 0.85 0.95 0.94 0.93 0.96 1.03 1.09 1.13 1.12 0.96 0.82 0.77 0.73 0.67 0.60 0.55 0.51 0.50 0.54 0.58 0.59 0.59 0.61 0.63 0.65 0.79 0.96 1.08
0.36 0.37 0.40 0.43 0.48 0.54 0.55 0.56 0.67 0.77 0.79 0.71 0.66 0.67 0.74 0.80 0.82 0.83 0.87 0.93 0.98 0.99 0.95 0.84 0.75 0.68 0.63 0.58 0.55 0.53 0.52 0.47 0.46 0.52 0.54 0.55 0.55 0.59 0.63 0.66 0.72 0.86 0.97
0.36 0.41 0.45 0.44 0.48 0.53 0.53 0.51 0.54 0.61 0.68 0.71 0.72 0.69 0.72 0.76 0.80 0.81 0.85 0.96 1.00 0.86 0.71 0.69 0.67 0.64 0.64 0.63 0.59 0.56 0.53 0.52 0.51 0.50 0.49 0.50 0.53 0.58 0.62 0.63 0.67 0.80 0.89
0.39 0.41 0.45 0.45 0.48 0.53 0.54 0.52 0.52 0.53 0.55 0.60 0.67 0.75 0.81 0.82 0.84 0.87 0.85 0.84 0.81 0.74 0.65 0.63 0.63 0.64 0.65 0.65 0.60 0.56 0.55 0.51 0.47 0.47 0.46 0.45 0.46 0.53 0.56 0.55 0.61 0.70 0.80
0.45 0.51 0.53 0.49 0.50 0.56 0.58 0.58 0.56 0.55 0.57 0.58 0.61 0.68 0.83 0.91 0.88 0.88 0.83 0.76 0.73 0.68 0.64 0.64 0.62 0.62 0.65 0.66 0.63 0.60 0.57 0.52 0.48 0.46 0.45 0.43 0.42 0.47 0.51 0.53 0.57 0.64 0.69
0.50 0.53 0.59 0.54 0.53 0.60 0.65 0.64 0.61 0.62 0.63 0.60 0.58 0.63 0.84 0.89 0.80 0.70 0.71 0.70 0.69 0.67 0.68 0.68 0.65 0.63 0.64 0.64 0.64 0.61 0.56 0.52 0.48 0.46 0.44 0.43 0.43 0.44 0.44 0.49 0.55 0.59 0.65
0.54 0.56 0.58 0.57 0.57 0.62 0.68 0.67 0.66 0.66 0.66 0.65 0.61 0.65 0.73 0.69 0.66 0.66 0.66 0.65 0.65 0.64 0.66 0.69 0.67 0.64 0.65 0.65 0.64 0.62 0.57 0.51 0.47 0.46 0.46 0.43 0.42 0.40 0.41 0.45 0.49 0.54 0.60
0.58 0.62 0.65 0.65 0.61 0.67 0.71 0.70 0.69 0.69 0.68 0.64 0.64 0.64 0.65 0.64 0.65 0.68 0.71 0.69 0.68 0.68 0.65 0.65 0.64 0.62 0.61 0.62 0.60 0.60 0.58 0.49 0.46 0.48 0.51 0.47 0.42 0.38 0.38 0.39 0.41 0.47 0.53
0.67 0.68 0.71 0.72 0.68 0.68 0.71 0.74 0.73 0.71 0.70 0.68 0.67 0.66 0.64 0.64 0.65 0.66 0.69 0.71 0.72 0.70 0.66 0.65 0.62 0.59 0.58 0.59 0.57 0.55 0.52 0.52 0.56 0.57 0.52 0.51 0.45 0.39 0.38 0.38 0.38 0.41 0.49
0.73 0.73 0.75 0.79 0.78 0.75 0.75 0.77 0.75 0.74 0.73 0.70 0.68 0.68 0.65 0.64 0.64 0.63 0.65 0.67 0.69 0.68 0.63 0.62 0.64 0.63 0.60 0.56 0.53 0.52 0.56 0.61 0.68 0.72 0.71 0.64 0.52 0.42 0.40 0.39 0.38 0.40 0.44
0.75 0.75 0.77 0.80 0.82 0.79 0.79 0.81 0.79 0.77 0.78 0.73 0.68 0.68 0.68 0.66 0.63 0.62 0.63 0.65 0.69 0.68 0.63 0.61 0.62 0.63 0.60 0.58 0.55 0.57 0.61 0.62 0.65 0.68 0.73 0.75 0.61 0.47 0.43 0.43 0.40 0.40 0.43